Lubbock, TX

7:40 PM CST on November 12, 2019 (GMT -0600)
Lubbock International

Weather History for KLBB - September, 2019

Change the Weather History Date:

Tuesday, September 10, 2019

  Actual Average Record
Temperature  
Mean Temperature 78 °F 74 °F  
Max Temperature 87 °F 86 °F 100 °F (2000)
Min Temperature 69 °F 61 °F 47 °F (1956)
Degree Days  
Heating Degree Days 0 0  
Month to date heating degree days 0 0  
Since 1 July heating degree days 0 0  
Cooling Degree Days 13 9  
Month to date cooling degree days 145 101  
Year to date cooling degree days 1863 1627  
Growing Degree Days 28 (Base 50)    
Moisture  
Dew Point 63 °F    
Average Humidity 65    
Maximum Humidity 84    
Minimum Humidity 44    
Precipitation  
Precipitation T in 0.09 in 0.96 in (1980)
Month to date precipitation 0.26 0.86  
Year to date precipitation 15.85 13.93  
Snow  
Snow 0.00 in 0.00 in 0.00 in (2002)
Month to date snowfall 0.0 0.0  
Since 1 July snowfall 0.0 0.0  
Since 1 September snowfall 0.0 0.0  
Snow Depth 0.00 in    
Sea Level Pressure  
Sea Level Pressure 29.92 in    
Wind  
Wind Speed 12 mph ()    
Max Wind Speed 24 mph    
Max Gust Speed 30 mph    
Visibility 10.0 miles    
Events Rain    
T = Trace of Precipitation, MM = Missing Value Source: Averaged Metar Reports

Daily Weather History Graph

Daily Weather History Graph

Search for Another Location

Airport or City:

Astronomy

Sep. 10, 2019 Rise Set
Actual Time 7:27 AM CDT 8:00 PM CDT
Civil Twilight 7:02 AM CDT 8:25 PM CDT
Nautical Twilight 6:32 AM CDT 8:55 PM CDT
Astronomical Twilight 6:02 AM CDT 9:25 PM CDT
Moon 6:27 PM CDT (9/10) 4:07 AM CDT (9/10)
Length of Visible Light 13h 23m
Length of Day
12h 33m
Waxing Gibbous, 89% of the Moon is Illuminated
Sep 10
Waxing Gibbous
Sep 13
Full
Sep 21
Last Quarter
Sep 28
New
Oct 5
First Quarter

Hourly Weather History & Observations

Time (CDT) Temp. Heat Index Dew Point Humidity Pressure Visibility Wind Dir Wind Speed Gust Speed Precip Events Conditions
12:53 AM 73.0 °F - 62.1 °F 68% 29.86 in 10.0 mi SSW 12.7 mph - N/A   Mostly Cloudy
1:53 AM 71.1 °F - 63.0 °F 75% 29.88 in 10.0 mi SSW 11.5 mph - N/A   Scattered Clouds
2:53 AM 71.1 °F - 63.0 °F 75% 29.87 in 10.0 mi SSW 10.4 mph - N/A   Scattered Clouds
3:53 AM 71.1 °F - 63.0 °F 75% 29.87 in 10.0 mi SSW 6.9 mph - N/A   Mostly Cloudy
4:53 AM 70.0 °F - 64.0 °F 81% 29.88 in 10.0 mi SSE 10.4 mph - N/A   Mostly Cloudy
5:53 AM 70.0 °F - 64.0 °F 81% 29.89 in 10.0 mi South 6.9 mph - 0.00 in Rain Light Rain
6:53 AM 70.0 °F - 63.0 °F 78% 29.91 in 10.0 mi South 11.5 mph - 0.00 in   Mostly Cloudy
7:53 AM 69.1 °F - 63.0 °F 81% 29.93 in 10.0 mi SSE 9.2 mph - N/A   Mostly Cloudy
8:53 AM 71.1 °F - 64.9 °F 81% 29.94 in 10.0 mi SSE 11.5 mph - N/A   Mostly Cloudy
9:53 AM 72.0 °F - 64.9 °F 78% 29.96 in 10.0 mi South 20.7 mph - N/A   Mostly Cloudy
10:53 AM 75.9 °F - 64.9 °F 69% 29.96 in 10.0 mi South 21.9 mph - N/A   Scattered Clouds
11:53 AM 80.1 °F 82.1 °F 66.0 °F 62% 29.95 in 10.0 mi South 20.7 mph 26.5 mph N/A   Scattered Clouds
12:41 PM 79.0 °F - 66.0 °F 64% 30.09 in 10.0 mi South 18.4 mph - N/A   Mostly Cloudy
12:53 PM 79.0 °F - 66.0 °F 64% 29.95 in 10.0 mi South 21.9 mph 28.8 mph N/A   Mostly Cloudy
1:49 PM 82.4 °F 83.9 °F 64.4 °F 54% 30.08 in 10.0 mi South 19.6 mph 27.6 mph N/A   Scattered Clouds
1:53 PM 82.9 °F 84.6 °F 64.9 °F 54% 29.93 in 10.0 mi South 19.6 mph 27.6 mph N/A   Scattered Clouds
2:53 PM 84.0 °F 85.4 °F 64.0 °F 51% 29.90 in 10.0 mi South 19.6 mph 26.5 mph N/A   Mostly Cloudy
3:53 PM 86.0 °F 87.3 °F 64.0 °F 48% 29.88 in 10.0 mi South 20.7 mph 28.8 mph N/A   Mostly Cloudy
4:53 PM 84.9 °F 85.9 °F 63.0 °F 48% 29.86 in 10.0 mi South 19.6 mph 26.5 mph N/A   Mostly Cloudy
5:53 PM 84.0 °F 84.4 °F 61.0 °F 46% 29.86 in 10.0 mi SSE 18.4 mph 23.0 mph N/A   Mostly Cloudy
6:53 PM 84.9 °F 85.0 °F 61.0 °F 44% 29.86 in 10.0 mi South 13.8 mph - N/A   Mostly Cloudy
7:53 PM 81.0 °F 81.7 °F 61.0 °F 50% 29.87 in 10.0 mi SSE 17.3 mph 25.3 mph N/A   Mostly Cloudy
9:53 PM 75.9 °F - 61.0 °F 60% 29.92 in 10.0 mi SSE 11.5 mph - N/A   Scattered Clouds
10:53 PM 75.9 °F - 62.1 °F 62% 29.94 in 10.0 mi South 8.1 mph - N/A   Mostly Cloudy
11:53 PM 75.0 °F - 62.1 °F 64% 29.93 in 10.0 mi South 9.2 mph - N/A   Partly Cloudy